Total_Precipitation_Accumulation
1.89 1.99 2.05 2.04 2.19 2.27 2.26 2.17 2.29 2.43 2.63 2.61 2.60 2.60 2.48 2.39 2.49 2.62 2.47 2.69 2.71 2.76 2.70 2.73 2.79 3.02 3.12 3.04 3.10 3.16 3.43 3.76 3.64 3.31 2.99 2.77 2.69 2.66 2.51 2.47 2.38 2.26 2.06
1.80 1.84 2.01 2.14 2.17 2.14 2.09 2.10 2.13 2.16 2.25 2.27 2.25 2.26 2.30 2.47 2.61 2.53 2.48 2.52 2.57 2.49 2.54 2.69 2.56 2.76 2.93 2.86 2.99 3.01 3.19 3.56 3.72 3.78 3.65 3.34 3.10 2.91 2.85 2.63 2.20 2.02 2.06
1.93 1.97 2.13 2.10 2.00 2.02 2.23 2.31 2.22 2.19 2.22 2.19 2.18 2.17 2.19 2.41 2.56 2.48 2.50 2.58 2.58 2.41 2.51 2.53 2.39 2.55 2.62 2.71 2.78 2.84 3.04 3.29 3.63 3.56 3.52 3.44 3.31 3.04 3.14 2.80 2.47 2.40 1.98
2.01 2.13 2.24 2.13 2.11 2.18 2.30 2.40 2.37 2.29 2.31 2.40 2.42 2.32 2.32 2.22 2.23 2.38 2.52 2.51 2.46 2.34 2.36 2.29 2.18 2.20 2.31 2.54 2.57 2.72 2.95 3.18 3.40 3.34 3.36 3.47 3.56 3.55 3.55 3.23 3.02 2.78 2.39
2.02 2.13 2.21 2.26 2.28 2.35 2.36 2.42 2.40 2.30 2.30 2.54 2.55 2.51 2.47 2.26 2.07 2.20 2.33 2.24 2.27 2.22 2.18 2.03 1.85 1.93 2.07 2.16 2.06 2.43 2.80 2.94 3.02 3.09 3.16 3.35 3.49 3.73 3.53 3.39 3.28 3.24 2.92
1.88 2.02 2.10 2.23 2.38 2.40 2.38 2.42 2.40 2.42 2.46 2.50 2.42 2.39 2.29 1.96 2.02 1.97 1.93 1.98 2.05 2.07 2.09 2.07 1.94 1.87 1.81 1.82 1.76 1.94 2.29 2.47 2.68 2.97 3.07 3.26 3.34 3.36 3.54 3.52 3.49 3.35 3.05
1.80 1.92 2.05 2.19 2.31 2.32 2.27 2.39 2.49 2.45 2.37 2.25 2.20 2.20 2.13 2.05 1.91 1.67 1.60 1.73 1.92 2.01 2.05 2.08 1.82 1.67 1.73 1.59 1.66 1.73 1.78 1.90 2.08 2.47 2.75 2.85 2.92 2.97 3.27 3.34 3.35 3.22 3.12
1.83 1.96 2.05 2.20 2.23 2.26 2.27 2.22 2.22 2.24 2.21 2.19 2.07 2.05 2.14 2.04 1.98 1.71 1.58 1.53 1.72 1.76 1.75 1.79 1.84 1.80 1.72 1.77 1.74 1.70 1.59 1.63 1.75 1.77 1.92 2.16 2.45 2.71 2.91 3.09 3.38 3.33 3.25
1.84 2.01 2.16 2.23 2.23 2.23 2.24 2.18 2.18 2.19 2.14 2.15 2.11 2.12 2.12 2.06 2.02 1.81 1.74 1.66 1.74 1.72 1.73 1.75 1.85 1.89 1.95 1.85 1.77 1.77 1.74 1.72 1.69 1.67 1.59 1.70 1.89 2.03 2.23 2.52 2.88 3.20 3.39
1.90 2.04 2.12 2.19 2.29 2.22 2.31 2.39 2.36 2.28 2.22 2.23 2.22 2.16 2.04 1.99 1.89 1.71 1.70 1.67 1.85 1.95 2.03 2.00 1.92 1.78 1.81 1.73 1.68 1.74 1.69 1.67 1.59 1.55 1.49 1.46 1.46 1.61 1.82 2.04 2.37 2.76 3.02
1.93 2.06 2.15 2.23 2.32 2.30 2.36 2.42 2.44 2.38 2.40 2.29 2.12 2.09 2.06 1.93 1.73 1.46 1.41 1.42 1.68 1.93 1.96 1.90 1.78 1.63 1.49 1.44 1.40 1.50 1.59 1.55 1.55 1.58 1.61 1.59 1.62 1.65 1.73 1.84 2.17 2.46 2.61
2.02 2.03 2.15 2.30 2.14 2.13 2.38 2.46 2.49 2.50 2.45 2.33 2.19 2.08 2.06 1.97 1.66 1.47 1.41 1.40 1.56 1.82 2.01 1.97 1.82 1.66 1.45 1.36 1.20 1.26 1.34 1.29 1.35 1.54 1.60 1.61 1.63 1.65 1.74 1.88 2.11 2.32 2.51
2.08 2.11 2.16 2.22 2.32 2.37 2.41 2.49 2.46 2.40 2.35 2.30 2.24 2.12 2.09 2.12 2.03 1.74 1.57 1.55 1.62 1.67 1.82 1.99 1.87 1.58 1.35 1.24 1.21 1.14 1.05 1.04 1.21 1.34 1.41 1.51 1.56 1.66 1.80 1.98 2.22 2.39 2.44
2.23 2.33 2.33 2.27 2.32 2.47 2.60 2.58 2.48 2.32 2.35 2.38 2.26 2.22 2.23 2.26 2.14 1.91 1.73 1.64 1.67 1.64 1.66 1.68 1.64 1.49 1.30 1.29 1.32 1.20 1.08 1.15 1.23 1.26 1.35 1.47 1.55 1.63 1.76 1.86 2.06 2.30 2.44
2.47 2.49 2.51 2.51 2.54 2.61 2.58 2.53 2.51 2.44 2.37 2.40 2.34 2.30 2.28 2.20 2.08 1.96 1.83 1.77 1.76 1.71 1.64 1.64 1.58 1.57 1.43 1.37 1.44 1.44 1.42 1.47 1.43 1.36 1.39 1.42 1.47 1.53 1.59 1.72 1.90 2.03 2.15
2.81 2.66 2.69 2.75 2.76 2.70 2.70 2.52 2.37 2.26 2.19 2.07 2.08 2.07 1.95 1.91 1.85 1.75 1.73 1.73 1.71 1.72 1.60 1.64 1.74 1.72 1.67 1.67 1.67 1.63 1.60 1.56 1.56 1.59 1.58 1.54 1.54 1.56 1.55 1.62 1.75 1.85 1.89
2.97 2.92 2.79 2.73 2.69 2.66 2.74 2.78 2.68 2.46 2.35 2.16 2.01 1.91 1.85 1.80 1.70 1.61 1.63 1.70 1.73 1.73 1.63 1.73 1.88 1.89 1.85 1.84 1.75 1.69 1.73 1.67 1.67 1.69 1.68 1.68 1.72 1.73 1.70 1.72 1.81 1.92 1.92
2.79 2.78 2.73 2.70 2.64 2.63 2.73 2.81 2.77 2.72 2.63 2.42 2.17 2.02 1.83 1.65 1.55 1.54 1.63 1.62 1.56 1.54 1.59 1.81 1.99 2.00 2.00 1.97 1.87 1.78 1.78 1.76 1.72 1.70 1.70 1.69 1.73 1.81 1.83 1.82 1.84 1.91 1.92
2.69 2.67 2.61 2.59 2.67 2.78 2.82 2.90 2.84 2.79 2.74 2.61 2.34 2.12 1.98 1.71 1.57 1.54 1.54 1.47 1.57 1.68 1.75 1.87 1.93 1.96 1.96 1.90 1.80 1.76 1.79 1.76 1.72 1.75 1.76 1.76 1.76 1.85 1.86 1.83 1.84 1.93 1.86
2.73 2.75 2.69 2.55 2.51 2.63 2.77 2.74 2.75 2.73 2.64 2.54 2.44 2.22 2.00 1.82 1.68 1.65 1.55 1.55 1.65 1.70 1.72 1.73 1.73 1.74 1.77 1.80 1.81 1.84 1.90 1.88 1.86 1.83 1.77 1.74 1.75 1.81 1.84 1.87 1.88 1.88 1.84
2.45 2.40 2.38 2.27 2.25 2.29 2.47 2.54 2.58 2.65 2.52 2.39 2.31 2.25 2.04 1.75 1.74 1.72 1.68 1.63 1.64 1.67 1.67 1.68 1.67 1.64 1.62 1.69 1.78 1.81 1.86 1.89 1.85 1.79 1.79 1.81 1.78 1.83 1.83 1.81 1.77 1.72 1.72
2.27 2.24 2.13 2.04 2.08 2.17 2.31 2.40 2.49 2.57 2.50 2.42 2.30 2.22 2.15 1.86 1.78 1.71 1.63 1.58 1.56 1.56 1.57 1.65 1.67 1.63 1.61 1.69 1.73 1.75 1.75 1.73 1.70 1.69 1.71 1.70 1.71 1.75 1.74 1.74 1.76 1.74 1.73
2.41 2.32 2.26 2.22 2.15 2.23 2.22 2.27 2.42 2.42 2.36 2.35 2.27 2.12 2.02 2.00 1.90 1.77 1.67 1.58 1.53 1.53 1.52 1.56 1.58 1.56 1.53 1.54 1.58 1.57 1.53 1.50 1.49 1.49 1.57 1.61 1.63 1.67 1.68 1.69 1.74 1.80 1.78
2.44 2.44 2.32 2.19 2.11 2.07 2.12 2.24 2.30 2.22 2.10 2.07 2.02 1.91 1.89 1.91 1.87 1.79 1.68 1.60 1.56 1.52 1.47 1.43 1.35 1.30 1.30 1.33 1.38 1.38 1.33 1.32 1.32 1.39 1.45 1.52 1.54 1.55 1.59 1.66 1.73 1.78 1.77
2.27 2.35 2.36 2.25 2.10 1.99 1.96 1.99 1.95 1.89 1.84 1.79 1.78 1.78 1.78 1.74 1.68 1.61 1.56 1.53 1.48 1.40 1.32 1.29 1.24 1.21 1.18 1.16 1.16 1.19 1.29 1.31 1.32 1.30 1.31 1.38 1.41 1.46 1.46 1.52 1.60 1.66 1.65
2.07 2.11 2.10 2.04 1.91 1.79 1.77 1.78 1.74 1.67 1.63 1.57 1.52 1.50 1.45 1.43 1.40 1.33 1.28 1.29 1.31 1.32 1.27 1.24 1.22 1.20 1.17 1.13 1.11 1.16 1.17 1.11 1.15 1.19 1.12 1.10 1.21 1.30 1.28 1.25 1.25 1.36 1.41